Printer-friendly version

IAU Minor Planet Center

Minor Planet Center

MPEC 2000-V21: 2000 VA45

The following Minor Planet Electronic Circular may be linked-to from your own Web pages, but must not otherwise be redistributed electronically.


Read MPEC 2000-V20 Read MPEC 2000-V22


M.P.E.C. 2000-V21                                Issued 2000 Nov. 6, 19:18 UT

     The Minor Planet Electronic Circulars contain information on unusual
         minor planets and routine data on comets.  They are published
   on behalf of Commission 20 of the International Astronomical Union by the
          Minor Planet Center, Smithsonian Astrophysical Observatory,
                          Cambridge, MA 02138, U.S.A.

             Prepared using the Tamkin Foundation Computer Network

                              MPC@CFA.HARVARD.EDU
          URL http://cfa-www.harvard.edu/iau/mpc.html  ISSN 1523-6714

                                   2000 VA45

Observations:
     K00V45A  C2000 10 06.30605 00 26 36.97 -22 36 32.2          18.5        608
     K00V45A  C2000 10 06.31681 00 26 36.14 -22 35 59.7          18.9        608
     K00V45A  C2000 10 06.32745 00 26 35.34 -22 35 27.7          19.1        608
     K00V45A* C2000 11 02.15779 00 15 51.67 -03 42 19.6          18.7        704
     K00V45A  C2000 11 02.17260 00 15 51.71 -03 41 48.6          18.8        704
     K00V45A  C2000 11 02.18721 00 15 51.85 -03 41 21.5          19.0        704
     K00V45A  C2000 11 02.21613 00 15 52.12 -03 40 23.7          18.9        704
     K00V45A  C2000 11 03.13662 00 16 06.91 -03 10 48.9          18.8        704
     K00V45A  C2000 11 03.15029 00 16 07.08 -03 10 21.8          19.3        704
     K00V45A  C2000 11 03.16017 00 16 07.18 -03 10 03.5          18.8        704
     K00V45A  C2000 11 03.16410 00 16 07.22 -03 09 56.0          19.4        704
     K00V45A 4C2000 11 03.17015 00 16 07.46 -03 09 46.2                      673
     K00V45A 4C2000 11 03.17439 00 16 07.50 -03 09 38.2                      673
     K00V45A  C2000 11 03.17504 00 16 07.23 -03 09 35.2          18.6        704
     K00V45A  C2000 11 03.17862 00 16 07.33 -03 09 28.6          19.2        704
     K00V45A 4C2000 11 03.17904 00 16 07.53 -03 09 28.4                      673
     K00V45A  C2000 11 03.18973 00 16 07.41 -03 09 06.5          19.0        704
     K00V45A  C2000 11 03.19299 00 16 07.44 -03 09 00.6          19.6        704
     K00V45A  C2000 11 03.20426 00 16 07.56 -03 08 39.3          19.1        704
     K00V45A  C2000 11 03.30123 00 16 08.71 -03 05 37.1          19.9 V      918
     K00V45A  C2000 11 03.30948 00 16 08.83 -03 05 20.9          20.1 V      918
     K00V45A  C2000 11 03.31706 00 16 08.96 -03 05 08.3          19.4 V      918
     K00V45A  C2000 11 05.85113 00 17 00.49 -01 46 46.1                      046
     K00V45A  C2000 11 05.85468 00 17 00.56 -01 46 39.4          18.0 R      046
     K00V45A  C2000 11 05.85667 00 17 00.66 -01 46 35.6                      046
     K00V45A  C2000 11 05.85832 00 17 00.60 -01 46 32.0                      046
     K00V45A  C2000 11 05.85999 00 17 00.70 -01 46 30.3          18.3 R      046

Observer details:
046 Klet.  Observers J. Ticha, M. Tichy, P. Jelinek.  0.57-m f/5.2
    reflector + CCD.
608 Haleakala-NEAT/MSSS.  Observers E. F. Helin, S. Pravdo, K. Lawrence,
    P. Kervin, D. Talent, R. Maeda, P. Tanner.  1.2-m reflector + CCD.
673 Table Mountain Observatory, Wrightwood.  Observer M. Hicks.  0.6-m
    reflector + CCD.
704 Lincoln Laboratory ETS, New Mexico.  Observers M. Blythe, F. Shelly,
    M. Bezpalko, M. Elowitz, R. Huber, L. Manguso.  Measurers J. Stuart,
    R. Sayer, J. B. Evans, H. Viggh.  1.0-m f/2.15 reflector + CCD.
918 Badlands Observatory, Quinn.  Observer R. Dyvig.  0.66-m f/4.8
    reflector + CCD.

Orbital elements:
2000 VA45
Epoch 2000 Oct. 3.0 TT = JDT 2451820.5                  Spahr
M  18.88099              (2000.0)            P               Q
n   0.36795842     Peri.  287.20914     +0.78017321     +0.61217254
a   1.9287246      Node    35.35439     -0.45526258     +0.69677244
e   0.3872769      Incl.   12.85556     -0.42902885     +0.37383545
P   2.68           H   18.9           G   0.15
From 27 observations 2000 Oct. 6-Nov. 5.

Ephemeris:
2000 VA45                a,e,i = 1.93, 0.39, 13                  q = 1.1818
Date    TT    R. A. (2000) Decl.     Delta      r     Elong.  Phase     V
2000 10 23    00 15.74   -09 49.3    0.412    1.363   148.1    22.7    18.7
2000 11 02    00 15.82   -03 47.3    0.487    1.408   142.0    25.7    19.3
2000 11 12    00 20.06   +01 07.4    0.577    1.457   135.1    28.6    19.8
2000 11 22    00 27.58   +05 08.9    0.679    1.507   128.4    30.9    20.3
2000 12 02    00 37.74   +08 31.4    0.793    1.558   121.8    32.5    20.7
2000 12 12    00 50.00   +11 25.7    0.917    1.609   115.6    33.5    21.1
2000 12 22    01 03.89   +13 59.5    1.050    1.661   109.5    33.9    21.5
2001 01 01    01 19.13   +16 17.9    1.190    1.713   103.7    33.9    21.9

Timothy B. Spahr             (C) Copyright 2000 MPC           M.P.E.C. 2000-V21

Read MPEC 2000-V20 Read MPEC 2000-V22


Our Web policy. Index to the CBAT/MPC/ICQ pages.


Valid HTML 4.01!